Terminal Aerodrome Forecast
Issued by NWS North Platte, NE

Home | Current Version | Previous Version | Text Only | Print | Product List | Glossary On
Versions: 1 2 3 4 5 6 7 8 9 10 11 12 13
000
FTUS43 KLBF 260500
TAFVTN
TAF
KVTN 260520Z 2606/2706 26005KT P6SM SKC
     FM261600 30013G21KT P6SM SCT250
     FM262300 29008KT P6SM SCT250
     FM270100 VRB05KT P6SM SCT250=

USA.gov is the U.S. government's official web portal to all federal, state and local government web resources and services.